Location: Shepherdstown, WV
(39.4326°N, 77.8042°W)
Time: 05:29:56
(UTC-04:00)

Vanguard 3 - Pass Details

Date: 05 August 2021
Orbit: 510 x 3260 km, 33.3° (Epoch: 21 September)

Event Time Altitude Azimuth Distance (km) Brightness Sun altitude
Rises 21:54:53 0° 277° (W) 6,158 12.6 -16.7°
Reaches altitude 10° 21:58:33 10° 274° (W) 5,427 12.1 -17.3°
Maximum altitude 22:15:45 60° 201° (SSW) 3,553 10.2 -19.7°
Enters shadow 22:28:23 27° 135° (SE) 4,779 10.4 -21.5°
Drops below altitude 10° 22:34:30 10° 127° (SE) 5,840 - -22.3°
Sets 22:38:40 0° 124° (SE) 6,629 - -22.8°
